Theta_e
337 336 331 330 332 330 329 329 326 328 329 327 328 330 340 349 335 329 343 349 341 339 342 346 348 347 346 346 342 337 336 337 336 336 340 345 347 351 355 355 353 352 351 351 351 351 352 352 351 351 350 349 348 346 344 344 343 342 341 340 339 338 337 337 337 335 330 326 321 319 321 320 320 320 320 320 321 322 322 323 323 324 323 323 324 324 324
330 330 330 331 330 328 328 329 329 329 330 329 328 332 340 345 345 347 350 348 346 342 340 343 344 339 338 338 337 335 336 338 338 337 341 349 352 353 356 358 357 354 353 352 352 352 352 351 351 350 349 347 346 345 343 343 343 342 341 340 338 337 335 334 336 337 331 323 321 321 321 321 321 321 321 321 321 321 322 322 322 323 323 323 324 324 325
328 330 330 330 329 329 327 327 331 331 330 332 330 329 333 336 341 351 352 348 348 343 339 343 340 336 339 339 337 336 336 336 337 336 338 345 352 354 354 356 358 356 355 354 352 353 352 351 351 350 348 346 344 344 344 342 341 341 341 340 337 334 334 332 334 335 329 322 321 322 321 322 321 321 321 321 322 322 322 322 322 323 323 323 325 326 327
325 328 330 328 327 328 325 325 330 330 329 331 331 333 336 332 334 345 347 342 346 346 344 345 342 341 342 340 338 338 337 336 336 336 335 336 343 349 350 350 353 354 355 354 353 353 352 351 350 347 346 347 345 345 343 339 339 339 338 338 334 332 334 333 332 331 326 321 321 322 322 322 321 321 321 321 322 322 322 322 322 322 322 323 325 328 329
325 327 328 329 326 324 323 325 328 331 332 333 332 333 335 335 340 347 343 339 345 351 349 346 347 348 346 342 339 338 339 339 339 340 340 339 339 345 350 351 351 351 354 355 355 354 353 351 349 347 346 348 347 345 340 337 336 336 335 334 333 333 336 333 329 327 324 322 322 322 322 322 322 322 321 321 322 322 322 323 323 322 322 323 326 328 330
324 330 331 328 324 323 328 334 334 334 334 333 334 334 335 341 347 347 344 343 347 348 347 348 349 347 343 338 335 336 335 336 337 338 339 340 340 343 348 353 354 353 354 355 355 354 353 352 350 348 348 348 347 343 339 336 336 336 335 333 332 334 335 333 329 326 323 322 323 323 323 323 322 322 322 322 323 323 323 324 324 324 323 323 326 328 330
329 337 339 328 322 326 338 344 339 335 335 336 337 340 342 344 345 346 345 346 351 349 343 342 341 337 335 334 333 334 334 333 336 337 336 337 339 339 342 347 351 353 352 352 351 352 353 352 351 350 350 348 345 341 339 338 337 337 336 334 332 333 335 335 333 327 322 322 323 323 323 323 323 323 323 323 323 323 323 324 325 326 325 324 325 327 329
330 332 333 329 328 336 345 344 337 335 340 344 342 342 346 345 344 349 347 343 351 349 338 335 337 334 333 335 334 334 335 335 335 336 336 336 336 336 336 338 342 347 349 349 349 350 352 353 351 351 350 348 344 341 340 339 338 338 336 334 333 335 336 336 333 327 323 322 323 323 323 323 322 323 324 323 324 324 324 325 326 327 327 326 326 327 329
330 326 328 332 332 334 340 342 340 336 338 343 341 339 345 347 345 351 352 346 349 348 338 334 334 334 337 341 338 334 335 335 334 334 335 335 334 335 337 337 339 342 345 347 348 350 352 352 351 350 349 347 345 342 340 339 339 338 336 334 334 336 337 335 333 331 328 325 323 323 323 323 322 323 323 324 324 325 326 326 327 328 328 328 328 329 329
334 326 326 330 326 325 334 340 342 338 333 338 342 339 345 352 346 343 348 348 347 348 343 336 332 338 348 347 340 336 336 336 336 336 335 335 335 336 339 342 343 346 350 351 351 352 354 353 352 351 350 348 347 345 342 340 340 338 336 334 335 336 335 334 333 333 332 329 327 324 323 323 323 323 323 323 324 326 327 328 328 329 330 330 329 329 329
336 329 327 327 323 328 344 347 343 337 332 338 344 337 340 352 346 336 342 349 346 344 342 337 337 348 353 345 337 335 336 335 336 337 336 336 338 340 342 344 346 352 357 358 356 356 357 355 355 354 352 351 350 348 346 343 341 338 335 335 335 335 335 335 334 333 332 332 330 328 326 326 325 324 324 324 326 327 328 329 330 331 331 331 330 330 329
335 334 331 328 329 341 353 345 337 336 334 341 347 336 337 348 344 335 339 344 341 337 334 336 344 351 350 344 337 334 333 332 335 338 338 338 341 344 344 345 349 354 358 359 360 360 359 357 357 356 354 353 351 350 348 343 339 336 335 334 334 334 335 335 335 334 334 335 335 333 331 330 328 328 327 327 329 330 330 332 332 332 332 332 331 331 329
331 331 328 327 334 349 351 339 335 335 334 340 342 337 340 343 339 334 335 336 336 335 332 336 342 343 338 336 335 333 332 333 335 338 339 340 343 344 343 343 348 353 357 359 360 359 359 358 356 354 353 352 349 348 346 341 337 336 335 335 334 335 336 336 336 336 337 337 338 337 336 335 334 334 333 333 334 334 334 334 333 332 333 332 332 331 330
334 335 334 331 335 344 342 334 334 334 337 342 342 339 339 337 334 336 336 333 334 334 333 334 336 335 333 333 334 333 331 334 338 341 341 341 343 344 341 340 343 349 355 358 359 358 358 356 354 353 352 350 347 345 343 341 339 339 338 338 338 338 339 339 339 340 340 341 340 340 339 338 337 337 337 336 336 335 335 335 333 332 332 332 332 331 330
346 343 341 336 337 343 338 337 346 348 347 349 345 337 335 335 334 336 336 335 336 334 333 335 334 333 334 334 334 333 331 334 340 343 341 341 343 343 339 339 343 349 354 356 356 356 355 354 352 351 350 347 344 343 343 343 342 341 342 343 344 344 344 344 343 342 342 342 341 340 339 338 336 335 334 334 335 334 333 334 333 331 332 332 331 331 331
351 345 344 343 343 343 337 341 353 353 344 342 339 335 335 335 334 335 335 336 335 334 334 335 333 334 336 335 336 336 333 334 340 343 343 344 342 339 339 344 349 352 355 356 352 350 351 351 350 349 347 346 345 344 344 345 344 344 344 343 341 340 341 344 345 345 343 342 341 340 339 337 336 335 333 333 334 333 333 334 331 330 331 332 331 331 330
348 346 350 349 342 338 336 338 343 342 338 338 337 335 335 335 334 335 335 334 333 332 332 333 333 335 337 336 336 336 334 336 340 343 344 343 338 337 344 352 355 355 356 352 347 345 348 349 348 347 345 344 344 344 344 344 341 339 335 330 327 327 329 333 338 340 342 342 341 341 340 338 337 336 335 334 334 334 333 333 331 329 329 330 331 332 329
346 340 342 341 335 333 335 336 336 336 337 337 335 333 334 335 336 336 334 334 334 333 332 332 333 334 335 335 336 336 336 339 342 342 342 341 339 342 351 354 354 354 352 346 341 343 344 345 346 345 343 343 344 342 340 336 332 329 327 325 324 324 326 329 331 333 336 339 341 341 341 340 338 336 335 335 334 333 332 332 331 327 324 326 330 332 329
344 342 343 340 335 334 334 334 335 336 335 334 334 335 335 335 336 334 332 332 335 335 335 336 336 336 337 336 336 336 339 342 343 342 342 341 343 348 351 348 346 346 345 340 339 341 343 343 345 345 344 345 342 336 332 329 327 326 326 327 325 325 327 330 330 330 331 334 337 339 339 338 335 333 333 333 333 333 331 331 330 327 325 326 330 331 329
346 347 344 337 333 333 332 332 333 333 333 334 334 334 335 335 335 334 332 333 335 335 336 337 336 336 338 337 337 338 340 343 343 342 341 341 344 346 345 342 342 342 340 337 336 340 343 344 344 342 341 339 335 331 328 326 325 323 323 325 326 326 327 329 327 326 327 331 333 335 334 333 332 331 331 333 333 333 331 330 329 329 329 330 331 331 329
349 348 342 338 337 335 331 332 332 330 331 333 332 332 333 332 333 333 333 335 337 337 337 337 336 337 339 339 339 340 341 342 342 340 340 341 344 344 341 340 342 341 339 337 336 338 341 342 340 337 335 331 329 327 325 323 322 321 320 322 323 323 324 324 323 324 327 330 332 332 332 332 331 330 330 331 332 332 331 329 328 328 329 330 330 329 329
351 350 345 342 343 339 331 330 331 329 330 331 330 330 329 328 329 331 331 333 335 337 337 336 337 337 337 337 339 341 342 343 342 340 339 340 341 341 339 339 340 339 339 340 338 336 338 338 336 332 328 324 323 323 322 322 322 321 319 319 319 320 320 322 325 328 331 332 332 332 331 331 330 330 330 330 330 330 330 329 329 329 328 329 328 328 328
344 342 337 335 337 335 329 329 330 330 329 329 328 328 328 327 327 327 328 328 330 334 337 336 336 336 335 334 337 339 340 340 341 341 340 339 339 339 338 338 338 337 338 340 338 335 334 333 329 326 324 322 321 322 322 322 321 319 318 318 318 318 319 321 325 329 330 331 331 331 331 331 331 330 330 329 329 328 328 328 328 328 328 328 328 328 328
331 329 328 327 329 329 327 327 329 329 328 328 327 326 326 326 325 325 326 326 326 330 334 334 333 335 335 335 336 337 338 338 338 338 339 339 338 337 336 337 338 338 337 337 334 330 327 325 324 324 324 323 323 323 323 321 319 319 319 319 318 318 319 322 325 327 329 330 331 330 330 331 331 330 330 329 328 328 327 327 328 327 326 326 326 327 327
324 324 324 324 325 326 326 326 326 326 326 325 325 325 325 325 325 325 325 325 325 326 328 329 330 332 335 336 337 337 336 335 335 336 338 338 336 334 333 335 337 336 334 331 328 324 323 323 324 324 323 324 326 326 323 321 320 320 319 319 319 319 320 320 321 323 326 328 328 329 330 330 329 329 329 329 328 327 326 326 326 326 325 325 325 325 325
321 321 320 322 323 324 325 324 323 323 324 324 324 324 324 324 324 324 324 324 325 325 325 326 326 328 331 335 337 336 334 335 337 338 338 336 334 332 330 330 331 330 329 327 325 324 323 324 324 325 326 328 328 326 324 322 322 322 321 321 321 321 322 323 324 325 325 326 326 328 329 329 328 328 328 327 327 326 325 325 325 325 326 325 324 324 323
319 319 319 322 323 322 322 323 321 321 323 323 323 323 323 323 323 323 323 323 324 323 324 325 324 326 330 335 335 335 334 335 336 337 337 335 334 332 331 331 330 328 327 326 325 324 324 325 325 326 328 329 329 327 327 326 324 323 323 322 322 323 325 326 327 328 328 328 327 328 328 328 328 328 327 327 326 326 325 325 325 326 326 325 324 323 322
320 321 321 322 323 322 321 321 321 321 322 322 322 322 322 322 322 323 322 323 323 323 324 324 323 325 330 333 334 334 334 334 334 335 335 335 334 334 334 335 333 329 327 327 326 325 327 329 329 328 329 330 331 331 330 328 325 324 324 323 325 326 327 328 328 329 329 329 328 328 328 328 328 328 327 327 326 325 325 324 324 325 325 325 324 323 322
322 322 322 322 321 320 321 321 322 322 321 322 322 323 323 323 323 323 323 323 323 323 323 323 323 323 325 330 333 334 334 334 334 334 334 335 335 335 335 334 332 332 333 332 330 331 332 333 331 329 329 331 332 332 331 328 326 326 325 325 327 328 328 329 329 329 328 328 328 327 327 327 327 327 327 326 324 324 323 323 323 324 324 324 323 322 321
322 322 322 322 322 322 323 323 323 323 323 324 324 324 324 323 323 322 322 322 322 322 321 322 322 322 323 325 329 331 333 334 333 334 334 334 334 334 332 330 332 336 337 336 335 334 332 331 331 331 333 334 332 331 330 328 326 325 324 324 325 326 326 327 328 328 327 327 326 325 324 324 325 325 325 324 323 323 323 323 324 325 324 324 323 321 321
324 323 323 323 323 323 322 322 322 323 323 322 322 322 322 322 322 322 321 321 320 321 321 321 322 323 323 323 324 325 327 329 331 332 333 333 333 333 333 333 336 338 338 337 334 330 328 329 331 334 335 334 331 329 329 328 325 323 323 323 324 325 326 326 327 327 326 325 324 324 323 323 323 323 323 323 323 323 323 322 322 323 323 323 322 321 320
322 322 321 321 320 320 319 319 320 320 320 320 320 320 321 321 321 321 321 321 321 321 321 322 323 324 324 324 324 324 324 325 329 332 333 332 333 333 332 334 336 336 335 333 331 329 330 332 334 333 333 332 330 329 329 327 325 324 324 325 326 327 327 327 327 326 325 325 324 323 323 323 323 323 323 323 323 323 322 321 321 321 322 322 321 320 318
320 320 320 320 320 320 320 319 319 320 319 319 319 319 319 319 319 319 320 321 321 321 321 322 322 323 324 324 324 324 324 325 328 330 331 331 332 332 331 332 333 332 331 332 333 332 333 334 334 333 332 331 329 327 326 325 325 325 325 326 326 327 327 327 326 325 325 324 323 323 322 322 322 323 323 323 322 322 321 320 319 319 319 320 319 318 316
319 319 320 320 320 321 321 321 321 321 321 320 320 320 320 320 320 320 321 321 321 321 321 321 320 321 322 323 324 324 325 325 326 327 327 329 332 333 332 332 331 329 330 333 334 332 331 332 332 331 330 328 326 324 324 324 324 325 325 325 325 325 325 325 325 324 324 323 323 322 322 322 322 322 322 321 321 321 320 319 318 317 317 317 316 315 314
319 319 319 319 319 320 320 321 321 321 322 322 322 322 322 322 322 323 323 323 323 323 323 322 321 321 321 322 323 323 324 325 325 325 328 331 334 334 333 332 331 331 332 333 332 330 329 330 329 327 326 325 324 324 324 324 324 323 323 324 324 325 324 324 324 324 323 322 322 321 321 321 321 321 320 319 318 318 319 318 317 317 318 317 315 314 313
320 320 320 320 320 320 320 320 321 321 322 322 322 322 323 324 323 324 324 324 324 324 324 323 322 322 321 322 322 323 325 326 326 328 332 335 335 334 332 331 332 332 333 332 330 328 328 327 326 324 324 324 323 323 323 323 323 322 323 323 324 323 323 323 323 322 322 322 321 321 321 321 320 319 319 319 318 318 318 318 316 316 316 314 313 313 312
321 321 321 321 321 321 321 321 321 322 322 322 323 323 323 324 324 324 324 324 324 325 325 324 324 323 322 322 323 325 326 327 328 331 334 335 334 332 331 331 331 331 330 329 328 327 326 325 324 323 322 321 320 320 321 322 321 322 323 323 322 322 321 321 321 320 320 320 320 319 318 319 318 318 317 318 318 317 317 317 315 313 312 312 312 312 311
322 322 322 322 322 322 322 321 322 322 323 323 323 323 323 323 323 323 323 324 325 326 326 326 326 325 324 324 326 327 327 327 329 331 332 332 332 331 331 330 330 328 327 326 326 325 324 324 323 322 320 319 319 319 320 320 321 321 322 322 321 321 321 321 320 320 319 319 318 317 316 316 316 315 315 316 315 315 314 314 313 312 312 312 312 311 311
322 322 322 322 322 322 322 322 322 323 323 323 323 323 323 323 322 321 322 323 324 325 325 325 325 325 325 326 328 329 328 328 328 329 330 331 331 330 330 330 328 327 326 325 325 324 324 323 323 322 321 320 320 318 318 320 321 321 321 320 320 320 320 320 319 319 319 318 318 316 315 315 315 315 314 313 313 313 313 313 312 312 312 311 311 311 310
322 322 322 322 323 323 322 322 323 323 323 323 323 324 324 324 322 322 322 323 324 324 324 325 326 327 327 327 328 330 330 330 329 330 330 331 330 329 329 328 326 326 325 324 323 322 322 321 321 321 320 320 319 318 318 319 321 320 319 318 318 318 318 318 317 316 317 318 317 316 314 313 313 313 313 313 312 312 313 313 312 311 311 310 310 310 309
322 322 322 323 323 322 322 323 323 323 323 323 324 323 323 323 324 324 324 324 325 325 325 326 327 328 327 326 327 328 328 328 329 329 328 328 327 326 325 325 325 325 324 322 321 321 321 320 320 320 320 319 319 318 318 318 318 318 318 317 317 316 316 316 315 314 315 316 315 314 313 312 312 312 312 312 312 311 311 311 311 310 309 309 309 309 309
322 322 322 322 322 322 322 322 322 322 323 323 323 323 323 323 324 324 324 324 324 325 326 326 326 326 325 324 324 325 325 325 326 325 324 324 323 323 323 323 323 323 322 321 321 321 321 320 320 320 320 319 319 318 317 316 316 317 317 316 315 315 315 315 315 315 315 315 315 314 313 313 313 312 312 312 311 311 310 310 310 309 309 308 309 309 309
322 321 322 322 322 321 321 321 322 322 322 322 322 322 323 323 323 323 324 324 324 325 325 325 324 324 323 323 323 323 323 324 324 323 323 323 323 322 322 322 322 321 320 320 320 321 320 319 319 319 319 319 318 317 315 314 314 315 314 312 312 312 313 313 313 313 313 313 313 313 313 313 313 312 312 312 311 310 310 309 309 308 308 308 308 308 308
321 321 321 321 321 319 318 319 320 320 319 320 321 321 321 321 321 322 323 323 324 324 324 324 323 322 322 322 322 323 322 322 321 321 322 323 323 322 322 322 322 321 320 319 319 319 319 318 318 318 319 318 318 317 315 312 310 311 312 311 310 311 312 312 312 312 311 312 311 311 310 310 310 310 310 309 309 309 308 308 308 308 308 308 307 307 307
317 318 319 321 321 319 318 318 319 319 318 318 319 320 320 320 320 320 321 321 321 322 321 321 321 320 320 320 321 322 322 322 322 322 322 322 322 321 321 321 321 321 320 319 318 318 318 318 317 318 318 316 315 315 313 309 308 309 310 310 309 309 310 310 310 310 311 311 310 310 309 309 309 309 309 308 308 308 308 307 307 307 307 307 307 307 306
314 315 317 318 319 318 318 318 319 319 319 317 318 319 319 318 318 318 319 319 320 321 322 321 320 319 318 318 319 320 321 321 321 322 322 322 322 321 321 321 320 320 320 320 319 318 318 318 317 317 316 315 312 310 308 308 308 309 309 308 308 308 308 308 309 309 310 310 309 309 309 309 308 308 308 307 307 307 307 306 307 307 307 306 306 306 306
315 315 316 316 316 317 317 317 318 319 318 317 317 318 318 317 317 318 319 319 319 320 321 322 321 319 318 317 317 318 319 320 321 322 322 322 321 321 320 320 320 319 319 319 319 318 318 318 317 316 316 314 311 309 308 309 309 309 309 308 308 307 307 307 307 308 308 308 308 307 307 308 308 307 307 306 306 306 306 306 306 306 306 306 306 305 305
317 315 315 316 316 316 317 317 317 317 317 317 317 317 317 317 317 317 318 318 318 319 320 321 321 321 320 319 318 319 319 319 320 320 321 320 320 320 320 319 319 318 318 318 318 317 316 315 315 315 314 312 310 310 310 310 309 310 309 309 308 307 307 307 307 306 306 307 307 306 306 306 306 306 306 306 306 305 305 305 305 305 305 305 305 305 305
317 316 316 316 316 316 317 317 316 316 317 317 317 317 317 317 318 318 317 318 318 319 319 319 320 320 321 320 320 320 320 320 320 320 320 320 320 319 319 319 319 318 317 316 316 316 315 314 314 313 312 311 310 311 311 310 309 310 309 309 308 307 307 307 306 306 305 305 306 306 305 305 305 305 305 305 305 305 304 304 304 304 304 305 304 304 304
317 317 316 316 316 317 317 316 316 316 316 316 317 318 318 317 318 318 318 318 318 319 319 319 319 320 320 320 320 320 320 320 320 320 320 319 319 319 319 319 318 317 317 316 315 314 314 314 313 313 312 312 311 311 311 311 310 310 309 309 309 308 307 306 306 305 304 304 305 305 305 305 305 305 304 304 304 304 304 304 304 304 304 304 304 304 304
317 317 317 316 316 317 317 316 316 316 315 315 316 317 317 316 317 318 318 318 318 319 319 319 319 319 319 320 320 320 320 320 320 320 320 320 319 319 318 318 318 317 317 316 314 313 312 312 312 313 313 313 312 311 311 311 311 310 309 309 309 308 307 307 306 305 304 304 304 304 304 304 304 304 304 304 304 304 304 304 304 304 304 304 303 303 304
317 317 317 316 316 317 317 316 316 316 315 315 315 315 314 314 316 318 318 318 318 319 319 319 319 319 319 319 319 319 320 320 320 320 320 320 319 318 318 318 318 317 317 315 313 312 312 312 312 313 313 313 312 311 311 311 310 310 309 309 309 308 308 307 306 304 304 304 303 303 304 304 304 304 304 304 303 304 304 304 304 304 304 304 303 303 303
Wind_Speed
10 8 9 7 5 7 6 7 12 15 16 14 9 7 7 8 8 6 11 17 16 14 13 11 11 12 11 11 15 19 19 22 24 21 20 21 21 21 22 24 31 37 40 40 40 40 39 38 38 39 39 39 36 33 33 31 30 28 28 27 24 21 20 20 20 17 12 10 10 9 8 9 8 8 8 8 9 9 9 9 9 10 10 11 12 13 12
8 9 11 9 7 6 5 8 8 10 13 12 11 9 7 8 7 8 13 15 12 13 14 13 15 19 19 18 19 18 15 17 21 22 22 24 24 24 24 24 28 34 37 39 39 39 39 38 37 38 38 37 35 33 34 35 33 32 32 31 26 23 19 16 18 19 15 14 12 10 10 10 9 9 9 9 8 8 8 9 9 9 10 11 11 11 12
2 6 10 12 11 6 5 9 10 8 9 9 9 9 8 8 6 7 15 13 8 9 10 11 16 20 21 19 18 18 16 15 15 14 15 19 24 26 26 25 27 31 35 38 39 38 38 38 37 37 37 35 33 34 36 38 36 34 35 33 27 24 15 12 18 24 20 17 15 12 12 12 11 11 11 10 9 9 9 9 8 9 10 11 10 11 12
1 4 7 11 12 8 8 11 10 9 9 6 5 5 4 8 7 7 12 9 6 7 7 9 13 16 15 12 14 16 13 10 8 6 6 10 15 22 27 27 26 30 34 35 36 37 37 36 37 37 36 35 36 38 39 38 34 32 33 29 25 23 17 16 21 28 23 19 18 15 14 14 13 13 13 12 12 11 10 9 9 10 10 10 10 11 12
2 4 8 8 7 6 8 8 8 9 7 3 4 7 9 8 7 7 7 6 5 5 7 9 9 9 9 10 13 15 12 11 8 5 2 3 5 11 23 29 27 28 32 33 34 34 34 35 36 37 38 38 40 41 40 36 32 31 29 25 24 24 22 20 24 28 23 20 19 17 16 16 14 15 15 14 14 13 11 10 10 10 10 10 10 10 12
1 3 6 6 4 4 6 3 2 3 4 5 5 7 11 8 2 7 5 5 7 8 9 9 9 10 12 13 13 11 9 8 6 2 2 6 6 6 12 23 28 28 29 30 30 30 31 34 36 37 39 41 42 42 40 38 36 35 33 30 28 27 26 23 26 27 23 21 20 18 18 17 16 17 17 15 15 14 13 12 12 11 11 12 11 11 13
1 3 5 4 4 5 4 1 4 7 8 7 6 7 7 6 7 10 9 8 8 8 9 12 15 16 14 11 10 10 8 6 4 4 7 9 11 9 9 15 23 27 27 27 27 28 30 33 36 38 40 42 42 41 41 41 41 40 38 35 31 29 28 25 26 26 24 23 21 20 20 19 19 19 18 17 16 15 13 13 13 12 12 13 13 12 13
2 3 4 1 4 4 2 4 4 5 6 7 7 6 4 6 5 6 9 9 8 9 11 14 16 14 11 10 10 9 6 4 4 9 12 11 12 13 12 13 17 22 25 26 26 28 31 33 36 39 40 41 41 40 40 40 39 39 39 36 31 29 28 27 27 27 26 24 23 23 22 22 22 21 20 19 17 16 14 14 13 13 13 13 12 11 11
1 1 2 1 4 5 3 3 4 2 3 4 4 1 3 3 4 4 6 7 7 9 13 18 20 17 13 11 8 6 3 6 12 16 14 11 11 13 12 13 15 17 23 26 27 29 31 34 37 39 39 39 38 38 38 37 37 37 36 32 30 30 29 28 27 27 26 26 26 25 25 25 24 24 23 21 18 17 16 15 14 14 14 13 12 11 11
1 2 1 1 3 4 2 1 3 4 5 3 4 3 4 5 6 7 7 7 8 9 11 15 16 13 9 5 5 7 7 6 9 13 11 7 10 12 12 13 14 15 21 26 27 28 31 34 36 37 37 36 35 36 37 37 36 34 33 31 31 31 29 28 27 27 27 27 27 27 28 28 27 26 25 23 21 19 17 16 15 15 14 14 13 12 13
2 3 1 1 2 3 2 1 3 6 8 7 7 4 4 7 8 8 7 6 7 10 12 12 11 9 5 2 3 6 5 6 4 7 8 5 8 11 11 12 13 15 20 23 24 27 32 34 35 35 34 32 32 33 35 36 35 32 32 32 31 30 29 28 28 28 28 28 28 29 29 29 29 28 27 25 23 20 19 17 15 15 15 14 14 14 14
3 5 2 1 1 3 4 2 5 10 15 14 8 2 3 9 9 9 14 11 8 12 15 13 9 6 4 6 2 6 7 7 6 8 10 7 11 13 11 11 13 15 19 21 23 27 31 32 33 32 31 29 28 29 31 33 33 31 30 29 29 29 29 30 29 29 29 29 29 29 30 31 31 30 28 27 25 22 20 18 17 17 16 16 17 17 16
3 5 5 3 1 2 4 5 7 9 12 11 5 3 5 10 11 15 21 17 14 15 15 10 7 5 5 5 5 8 11 11 5 11 14 11 13 13 10 10 13 15 18 21 23 25 29 31 31 30 29 27 25 26 30 33 31 28 26 25 25 27 27 28 28 28 28 29 30 31 31 31 29 29 28 27 26 24 21 19 19 18 17 17 19 18 18
2 1 1 2 1 2 3 6 9 8 5 2 3 3 2 9 15 21 23 21 20 20 17 14 14 12 9 9 9 10 15 15 1 16 16 13 14 13 10 11 12 14 18 20 22 25 28 30 30 28 28 24 21 23 28 30 27 23 22 21 22 23 24 24 25 25 25 27 29 31 31 29 25 25 25 25 25 23 21 21 21 21 19 19 20 21 21
3 3 4 2 2 6 4 2 4 5 2 6 6 4 5 13 20 23 25 25 23 22 20 19 19 17 14 14 13 12 16 14 3 16 15 14 16 14 12 13 11 13 17 19 20 23 29 31 29 27 25 22 22 25 25 24 22 21 18 15 13 14 16 18 20 22 24 27 29 31 31 29 27 26 26 26 25 22 20 21 22 22 21 22 23 24 24
3 3 1 3 4 7 5 4 2 3 5 6 4 5 8 16 20 20 22 23 22 21 21 19 17 15 14 14 13 11 14 15 4 13 15 15 16 14 13 14 13 16 20 20 17 18 24 29 28 26 26 26 25 26 24 22 22 21 17 12 9 9 11 13 15 17 21 25 29 30 29 29 27 24 24 26 25 24 23 24 23 22 23 25 25 25 25
2 3 3 2 2 7 9 12 12 12 12 10 11 16 18 19 20 18 18 20 19 18 16 13 11 11 11 12 11 10 12 14 6 13 16 15 14 14 15 16 17 19 19 19 17 15 17 24 28 26 27 28 25 24 22 20 17 14 11 8 7 7 8 9 11 13 16 21 24 26 27 28 25 22 23 24 25 24 26 27 26 25 25 27 27 26 25
6 8 9 7 10 13 14 15 16 17 18 17 17 21 21 18 16 15 16 17 16 15 13 11 11 11 11 10 9 10 11 7 4 13 15 14 14 16 17 17 18 17 15 18 21 17 13 18 25 26 25 24 21 19 17 12 7 3 2 4 7 10 10 10 11 13 15 19 21 23 25 26 25 24 25 26 26 26 26 26 26 24 23 25 27 26 24
5 5 12 15 13 14 18 20 18 18 19 18 16 17 17 16 15 15 14 13 12 11 9 8 9 10 9 8 8 8 7 2 9 14 15 15 16 18 19 16 15 17 18 21 23 18 12 13 20 22 19 17 15 12 8 6 5 3 5 7 10 12 12 12 13 15 16 18 19 20 22 22 22 20 20 22 24 25 23 22 23 23 23 23 25 25 24
4 6 6 9 14 14 17 21 19 19 19 19 19 18 16 14 14 14 12 10 8 6 3 4 7 8 8 8 8 8 5 2 9 14 17 18 18 19 19 17 16 19 22 24 25 20 13 12 17 18 15 13 11 9 8 7 3 7 9 9 10 12 13 14 15 16 16 15 16 16 17 17 17 16 16 17 20 21 20 19 21 23 22 22 24 25 24
3 4 5 3 6 9 14 18 18 18 18 17 17 18 17 14 13 12 10 8 9 8 5 4 6 8 8 8 8 6 3 5 10 14 16 18 19 20 19 18 19 21 23 25 28 26 19 15 17 18 14 12 10 8 5 1 10 14 11 10 11 12 13 14 15 14 13 13 14 13 13 14 14 14 15 16 17 19 19 18 19 21 21 22 23 23 23
2 4 3 5 3 1 9 12 11 12 13 12 12 13 15 15 13 11 9 8 8 9 8 6 6 6 6 7 7 4 2 5 9 12 14 17 20 21 19 18 20 22 22 23 25 26 22 16 14 13 12 9 7 4 6 12 15 13 9 9 10 10 10 10 9 9 10 12 12 12 13 14 13 13 14 15 16 16 16 16 17 19 20 22 22 21 22
3 4 8 10 8 6 7 7 6 8 10 12 12 11 12 14 14 13 11 10 9 7 6 5 6 6 6 7 6 2 2 4 6 9 10 13 16 19 19 17 17 20 21 20 18 18 18 15 12 11 10 8 8 9 13 16 14 10 8 8 7 7 6 5 6 9 11 13 13 13 14 14 13 12 11 12 13 14 15 16 17 17 18 19 20 20 20
8 9 12 11 8 6 6 7 8 7 8 12 14 12 11 12 13 13 11 11 12 8 5 6 8 9 9 8 6 3 1 3 5 7 9 10 12 13 15 16 17 18 19 17 15 15 16 14 11 9 10 12 14 15 17 16 11 8 6 5 5 5 4 4 7 11 12 13 14 14 13 13 13 11 9 10 11 12 14 15 15 15 16 17 17 18 18
11 9 9 9 7 5 5 9 13 12 9 10 13 12 10 10 12 12 11 11 11 10 10 11 10 10 10 9 7 5 3 2 4 8 11 12 11 10 12 15 17 17 15 14 15 15 13 11 10 14 16 16 15 15 14 12 10 7 6 5 4 5 5 6 9 11 12 13 14 13 11 11 11 10 9 10 10 11 12 14 15 16 16 15 15 15 15
10 7 6 7 8 10 10 11 14 13 10 9 10 10 9 10 10 10 11 12 12 12 12 13 13 13 12 11 9 5 4 3 7 11 14 13 11 11 13 15 16 16 15 16 16 15 13 13 15 15 15 15 16 14 13 11 10 8 6 6 6 5 5 6 8 11 12 13 13 13 11 10 11 11 11 10 10 10 13 15 16 17 16 14 12 12 12
8 7 6 6 10 15 15 12 12 12 10 8 9 10 10 11 10 10 11 13 14 14 13 13 15 13 8 10 10 6 5 6 10 14 16 15 13 12 14 16 16 15 15 17 17 17 18 18 15 14 16 17 16 14 13 12 10 9 8 8 8 7 7 8 10 11 12 12 12 13 13 12 12 12 11 10 10 11 12 14 15 16 15 12 9 9 10
12 13 13 11 12 13 13 11 11 10 9 10 10 10 11 12 12 12 12 13 14 14 13 12 13 12 6 6 9 9 9 11 13 15 16 16 14 14 16 18 17 16 17 19 20 19 17 16 15 15 17 16 15 14 13 12 11 10 9 8 7 6 8 9 11 12 13 12 12 13 14 14 13 14 13 12 11 11 11 12 14 15 14 11 8 9 9
17 16 15 13 12 12 12 12 12 11 11 12 11 10 11 12 13 13 14 14 15 15 14 14 15 14 10 6 8 10 11 12 13 14 16 17 17 17 18 18 17 17 18 18 17 17 18 18 17 16 17 16 15 15 14 13 12 10 9 8 8 9 11 12 11 12 13 13 12 12 13 13 14 15 15 14 13 12 11 11 12 13 13 11 10 9 8
16 15 15 13 12 12 14 16 14 13 13 14 13 12 12 13 14 15 15 16 16 16 16 17 17 16 13 10 6 7 9 11 12 13 15 17 17 17 17 17 17 19 21 21 21 21 21 20 18 17 17 17 16 16 14 12 10 9 10 10 10 11 12 12 11 11 13 13 11 11 11 11 13 14 13 12 11 10 9 8 10 11 12 11 10 9 8
15 15 16 15 14 14 16 17 16 14 15 15 14 13 14 14 14 15 15 15 16 16 17 18 18 17 17 15 12 10 9 10 12 13 14 16 16 16 15 15 17 19 19 20 19 18 18 19 19 19 18 17 15 14 12 10 9 9 8 8 9 9 10 11 11 11 11 11 10 9 9 9 10 11 10 9 8 7 6 7 9 12 13 13 11 9 5
16 16 17 17 16 15 16 16 15 15 15 15 14 15 15 14 14 15 15 16 17 17 16 17 17 16 15 15 15 14 13 12 11 10 12 14 16 17 18 19 20 19 14 12 13 15 18 20 20 18 16 15 14 13 11 9 8 6 5 6 9 10 9 9 10 11 11 10 10 9 8 7 8 8 8 7 6 6 6 6 7 10 13 12 10 7 5
17 16 16 16 16 16 16 15 14 14 15 15 15 16 16 15 16 16 16 17 18 18 18 20 20 19 17 16 16 15 13 12 10 9 11 13 15 18 20 20 20 17 14 14 14 14 14 16 16 15 15 14 12 11 10 9 8 6 6 9 11 11 10 10 11 12 12 10 8 7 6 6 6 7 7 6 6 7 7 5 4 6 8 8 8 7 8
12 11 10 11 13 14 15 15 15 15 15 15 16 16 16 17 17 17 17 18 18 19 21 22 22 22 20 18 17 17 16 15 15 16 17 18 17 17 19 19 15 13 15 18 17 13 11 12 14 14 13 10 8 8 9 11 12 11 11 11 12 12 10 9 8 9 9 7 5 5 5 5 5 6 6 5 5 6 6 5 4 4 4 6 6 8 9
8 8 9 10 11 12 13 14 15 15 15 16 16 16 16 17 17 18 18 19 19 20 21 21 21 22 21 20 20 20 19 19 19 20 18 17 15 15 17 18 16 16 17 18 17 15 15 17 16 13 10 9 10 11 12 12 13 13 13 12 12 11 8 6 6 7 7 6 5 5 4 4 4 4 4 4 6 7 7 5 4 6 6 5 6 8 10
8 10 11 12 13 13 13 14 15 15 15 16 17 17 17 18 18 19 19 20 20 21 21 21 21 21 20 20 21 21 18 18 19 18 17 16 15 13 13 14 16 17 16 16 16 16 17 16 14 12 12 12 12 13 13 13 12 11 10 9 8 6 5 5 6 6 6 5 5 4 4 4 4 4 6 7 6 6 7 6 5 7 7 7 7 9 11
11 11 12 13 13 13 13 14 14 15 15 16 16 17 17 17 17 19 20 21 21 21 20 20 20 21 21 22 21 18 14 11 11 12 14 13 12 13 14 15 15 14 14 15 16 16 14 12 10 10 11 12 13 14 14 13 12 9 6 5 4 2 2 3 3 2 2 3 2 1 2 4 4 5 7 8 7 7 8 8 8 7 8 7 7 8 10
12 12 12 13 13 14 14 14 15 15 15 15 16 17 18 19 20 21 22 21 21 19 18 17 18 19 21 21 19 15 11 8 7 8 9 10 11 13 15 16 14 12 11 13 14 12 10 9 8 8 9 10 12 12 11 10 9 7 5 4 3 3 3 3 2 1 2 2 1 0 1 3 4 4 5 7 8 8 7 7 6 6 6 6 7 9 9
15 14 14 14 14 15 16 15 15 15 16 16 17 18 19 20 22 23 22 22 22 22 21 20 20 20 18 16 13 10 8 7 7 6 8 11 14 17 18 17 14 13 13 12 11 10 9 9 10 10 9 9 8 6 4 6 9 8 5 3 2 4 5 5 4 4 5 6 4 3 4 5 7 9 9 8 7 5 4 4 5 5 5 6 7 8 8
17 17 16 16 15 15 16 15 14 15 16 16 16 16 17 19 20 20 21 22 22 22 22 20 17 15 13 11 11 9 7 7 7 8 11 15 17 18 18 16 14 14 13 11 9 9 8 9 9 8 6 4 3 1 4 9 11 8 5 3 3 3 4 5 4 4 7 9 8 7 7 8 10 11 10 9 7 5 5 6 7 7 7 7 8 8 9
17 16 16 16 15 14 14 14 14 14 14 13 14 15 15 15 15 16 17 18 17 16 16 15 13 10 7 3 3 7 9 9 9 9 12 14 15 15 14 12 12 13 12 10 9 9 8 7 6 5 4 4 4 2 3 7 9 7 5 4 3 4 5 7 7 6 6 10 11 10 9 8 8 7 7 7 7 6 6 7 8 7 6 6 9 12 12
15 15 15 15 14 13 13 13 13 12 11 11 13 14 13 12 12 13 14 13 10 8 7 8 9 7 4 1 3 6 7 9 9 8 6 6 7 8 9 10 11 11 10 9 9 10 9 8 7 6 7 8 8 5 3 5 8 9 6 4 4 6 7 7 8 9 9 11 12 12 12 11 10 9 9 9 8 8 9 10 10 8 5 4 6 10 12
13 12 12 13 13 13 12 13 12 11 10 11 11 11 12 13 13 12 11 11 8 5 2 2 3 3 1 2 4 5 6 7 6 4 5 6 7 8 9 9 10 10 8 7 8 11 11 10 8 8 9 9 9 5 4 5 6 6 3 2 5 7 7 7 5 7 8 8 9 9 10 10 10 10 10 10 10 10 11 12 10 8 6 6 6 7 9
11 11 11 11 12 12 11 11 11 10 10 12 11 11 11 13 12 10 9 8 7 4 2 2 3 3 1 1 3 4 4 4 3 3 7 11 11 10 9 9 9 8 6 4 6 11 13 11 9 9 9 9 9 8 7 7 6 7 6 6 8 10 10 9 8 6 6 6 7 8 8 9 10 10 9 7 6 6 7 8 9 8 8 10 10 10 9
14 13 11 10 10 10 10 11 10 10 11 12 12 10 10 10 11 10 9 7 6 5 4 3 4 4 2 2 3 3 3 4 4 5 9 13 12 10 8 8 9 9 7 6 9 12 13 12 11 10 8 8 8 9 9 9 8 8 6 8 10 12 12 12 12 10 7 7 9 10 9 8 10 11 11 10 9 8 7 8 8 8 8 9 11 12 12
15 14 13 12 11 11 11 11 11 10 10 11 11 9 8 9 10 10 8 6 5 5 4 3 3 4 4 4 4 4 5 6 6 6 8 10 10 8 7 8 8 7 7 9 13 15 15 14 12 10 9 8 7 7 7 7 6 3 4 7 9 11 11 11 12 12 10 7 8 9 10 11 11 11 11 10 9 8 9 10 10 9 9 9 10 12 13
14 14 13 12 12 12 13 13 12 11 11 11 11 9 9 9 10 9 8 7 6 5 4 3 3 4 5 6 6 6 7 7 6 7 9 10 9 9 9 8 6 5 7 12 15 15 14 13 12 11 10 10 7 5 5 6 5 4 6 10 10 8 6 6 9 11 12 11 8 7 9 12 14 12 10 10 9 7 8 10 11 11 10 10 11 11 12
12 13 13 13 13 13 13 13 13 12 11 11 11 11 10 10 10 10 9 8 6 6 6 5 4 4 5 5 5 6 8 8 7 8 8 9 9 10 10 9 7 7 9 13 15 13 11 10 10 10 11 10 8 6 5 5 6 6 8 10 9 8 9 10 12 12 13 14 12 8 8 9 11 11 11 12 13 8 9 11 13 12 10 11 11 11 12
11 12 11 11 11 11 11 13 13 12 12 12 12 12 12 12 11 11 11 10 8 7 7 7 6 6 6 4 4 5 7 7 7 7 7 8 8 8 8 9 10 10 10 12 14 13 11 9 9 10 11 11 10 9 9 7 6 8 7 8 9 11 13 15 16 15 14 15 15 10 6 5 8 11 11 11 12 9 9 11 13 13 12 12 12 12 15
11 11 11 11 10 8 8 11 11 12 13 14 14 13 14 15 13 11 11 11 10 8 8 9 9 9 7 6 5 6 7 6 7 7 7 9 9 7 8 11 13 12 11 11 13 14 13 11 10 11 12 12 12 12 12 10 10 11 11 10 11 13 14 14 14 13 12 13 16 15 9 5 6 10 11 12 13 11 8 9 12 13 13 13 13 14 15
12 10 11 12 11 9 7 7 8 10 13 13 13 14 16 17 14 11 10 11 11 10 10 11 11 9 7 6 7 7 8 8 9 8 8 9 10 10 11 13 14 14 13 12 13 13 14 14 13 13 13 14 14 14 14 13 12 13 14 13 13 14 14 14 15 15 13 11 13 15 13 9 6 7 8 10 12 12 10 9 10 12 12 13 14 15 15
13 12 12 12 12 10 9 7 6 8 12 13 13 15 17 18 15 12 11 10 10 10 11 11 11 9 7 7 8 8 8 9 10 9 8 8 9 10 13 15 16 15 14 14 14 14 14 16 16 15 15 15 15 15 15 13 11 12 14 14 15 15 15 14 14 15 15 13 11 11 14 15 12 8 6 6 8 11 12 12 11 10 9 11 14 16 15
Wind_Direction
207 222 241 246 210 204 216 210 205 210 223 239 236 204 184 157 155 204 199 171 167 184 185 179 178 169 166 166 153 151 163 173 176 177 179 184 187 187 189 194 198 201 204 208 210 211 212 211 211 212 212 211 210 204 200 203 207 208 207 204 199 199 210 223 231 236 236 231 233 230 229 239 241 243 256 263 267 270 271 273 274 277 285 287 289 294 299
219 242 249 255 251 243 275 287 254 214 211 226 232 225 203 183 179 173 178 181 180 182 185 184 180 171 164 156 149 149 154 161 172 180 182 184 187 190 193 197 202 205 209 212 213 212 212 211 212 215 213 212 210 206 206 207 207 208 205 199 195 195 205 228 234 231 236 238 231 225 228 234 236 241 249 254 263 274 280 284 286 286 288 287 289 296 304
246 256 252 248 249 259 276 279 277 257 239 235 233 234 225 220 220 162 164 182 200 193 181 170 168 161 151 146 149 156 158 154 161 175 184 189 191 194 198 200 200 203 208 212 213 213 213 214 213 214 213 212 208 204 205 205 203 201 198 194 191 193 211 252 238 229 236 238 229 228 232 233 234 239 244 249 257 268 274 281 285 284 287 289 291 296 301
314 275 264 237 228 246 262 260 262 257 252 250 244 250 237 224 217 159 156 177 208 204 167 140 146 145 138 137 139 140 142 143 150 170 202 216 211 206 205 204 202 203 205 209 213 214 215 214 212 210 208 205 201 201 202 199 193 186 185 187 193 205 239 269 238 227 234 232 227 230 233 234 238 241 245 250 256 262 267 273 278 281 288 294 293 293 295
208 271 281 255 220 225 240 247 260 262 269 319 342 331 309 262 210 155 157 173 167 152 127 115 120 120 115 118 118 113 111 114 112 108 159 239 246 217 209 208 209 210 208 209 215 217 216 214 212 210 205 200 199 200 197 190 184 180 184 197 209 224 254 261 229 224 230 226 225 231 232 235 240 241 245 249 253 260 264 266 270 278 289 291 287 286 288
190 280 296 292 275 233 227 235 318 320 336 359 8 350 322 298 168 124 120 115 107 102 108 118 124 122 116 112 112 110 110 119 122 128 225 246 265 256 219 211 212 215 213 211 215 220 219 215 211 208 205 202 200 199 195 192 193 195 201 211 219 234 255 248 223 223 229 225 227 234 235 237 238 240 244 247 251 258 261 262 266 272 280 282 279 280 283
121 35 23 339 277 245 241 307 31 31 16 8 20 24 8 17 76 103 98 91 93 97 112 127 131 133 128 119 124 132 133 137 156 217 244 248 251 256 249 226 219 220 219 216 214 218 217 211 205 202 201 201 199 198 199 202 204 208 212 218 227 241 249 238 226 229 232 231 233 237 238 239 238 240 244 244 247 253 255 261 266 269 273 276 274 275 281
126 82 84 155 256 282 343 3 357 15 26 27 24 16 21 42 63 106 117 120 120 114 116 114 111 111 106 97 105 119 130 160 222 247 250 249 250 254 255 247 236 231 229 223 215 212 211 205 201 201 201 200 199 201 204 208 211 215 217 223 234 242 239 233 232 235 236 237 241 243 244 243 240 242 245 245 247 249 251 256 262 266 271 273 274 278 285
109 111 128 166 303 315 348 354 343 12 46 59 72 32 314 4 60 97 122 129 119 114 113 102 91 87 85 79 71 63 32 292 268 252 241 240 252 253 243 240 247 247 238 226 214 210 208 202 201 203 202 200 201 204 207 210 215 218 220 226 236 237 235 236 239 241 242 244 246 247 248 246 245 247 246 245 246 245 246 252 257 263 271 273 274 277 279
56 58 19 341 311 295 246 284 357 7 338 347 93 99 304 326 37 71 111 122 105 107 111 103 95 87 78 55 29 47 41 344 279 233 215 232 252 240 223 228 240 238 226 217 212 210 204 200 203 206 204 203 207 209 210 213 217 219 222 230 234 233 235 241 246 249 251 251 252 252 252 252 252 252 249 247 246 245 246 249 253 260 268 271 273 274 274
78 83 10 269 254 275 279 301 0 4 9 28 55 44 306 310 356 40 88 107 102 106 104 105 104 86 78 125 62 43 31 7 338 219 212 238 235 216 215 231 234 219 209 206 207 206 200 198 204 207 205 207 211 214 216 218 219 220 225 230 231 232 238 244 249 253 256 257 258 257 257 258 257 254 253 250 247 245 246 249 252 258 263 264 267 271 274
154 138 169 272 231 268 296 350 21 20 37 53 58 40 284 299 333 51 85 83 87 103 98 93 100 97 129 161 97 348 319 321 307 243 221 212 206 201 211 230 229 215 205 200 200 200 199 200 204 204 203 204 208 213 216 216 215 219 226 231 233 235 240 245 250 256 259 259 259 260 262 263 260 258 257 254 249 248 248 249 251 254 256 258 261 267 270
196 164 184 226 222 265 309 359 30 38 50 60 83 182 256 306 349 58 79 76 75 91 95 87 89 108 129 118 52 3 352 348 300 210 192 190 198 201 209 223 225 220 211 205 201 197 196 198 201 200 197 198 203 210 211 210 212 220 228 233 236 239 244 250 255 260 263 265 268 269 266 263 259 256 254 251 248 247 249 253 255 253 251 251 254 257 258
338 348 247 265 288 321 6 27 29 39 67 117 181 181 335 359 29 52 60 61 62 68 70 60 50 50 51 43 30 16 8 6 160 179 179 185 191 197 212 220 225 225 216 208 202 195 192 195 196 194 194 195 198 202 205 207 212 222 228 232 237 243 249 256 260 264 271 274 273 266 257 252 252 254 254 252 250 249 253 258 258 252 245 245 249 253 256
63 29 355 14 269 291 317 33 10 17 111 184 187 157 47 38 50 54 51 50 53 54 53 49 41 34 27 17 8 1 3 6 162 180 188 195 192 198 213 214 216 218 208 201 195 188 186 187 188 189 192 194 191 192 198 204 208 213 218 224 235 246 254 261 267 271 274 271 262 257 255 255 256 260 261 259 259 261 261 258 255 251 248 248 252 257 261
115 126 215 202 236 296 336 91 86 50 117 157 148 93 61 48 54 59 52 43 42 45 46 42 35 30 26 16 2 350 353 352 290 199 193 193 189 190 199 203 204 200 195 192 192 189 185 184 185 188 189 186 183 184 189 194 198 203 209 217 233 250 256 264 273 276 273 263 258 260 264 261 260 265 266 263 262 264 263 260 259 259 260 261 260 259 264
83 125 213 197 59 19 48 87 89 77 88 99 80 71 67 54 47 51 52 42 34 34 33 26 19 18 15 10 0 344 339 338 291 197 184 182 183 182 183 188 192 192 190 190 195 203 195 182 179 182 182 179 179 183 188 193 198 205 215 229 253 272 272 271 277 278 274 268 266 269 270 269 272 279 280 274 269 268 269 269 267 264 268 273 270 265 271
26 3 335 2 52 54 59 76 86 82 78 78 77 73 70 63 53 50 56 52 40 28 18 9 6 3 353 344 341 330 326 324 204 183 183 183 182 180 179 181 188 193 191 182 185 201 211 186 174 172 177 183 186 189 192 195 191 191 267 300 307 311 307 298 293 288 281 277 276 277 279 284 290 293 291 286 280 278 279 277 271 269 273 276 273 271 278
70 352 319 330 2 37 54 60 64 68 68 69 72 72 72 76 72 60 55 52 36 21 19 20 17 10 354 338 330 325 322 234 174 181 187 183 176 176 180 186 195 197 189 177 176 190 212 194 172 166 170 180 183 179 168 143 111 53 339 313 306 305 302 298 298 297 291 286 284 284 286 291 297 300 300 294 283 279 280 275 269 272 277 275 273 276 282
123 182 238 319 347 15 49 57 51 52 59 61 61 63 69 77 76 67 61 51 30 22 44 38 12 1 353 344 336 333 328 208 182 184 187 185 180 179 184 190 194 191 184 176 172 175 180 169 161 159 155 152 152 151 142 129 66 338 315 298 293 295 294 294 297 298 299 298 298 296 293 295 299 302 302 295 283 277 278 276 275 278 278 273 273 277 281
96 181 181 76 12 11 38 48 48 50 57 60 57 55 55 59 64 65 62 52 50 59 62 21 357 355 349 336 327 325 304 224 201 191 186 183 182 183 186 187 185 180 172 164 165 168 166 152 148 148 142 143 157 165 160 328 326 319 303 282 279 281 282 287 293 298 302 303 303 300 296 298 301 301 297 292 284 279 281 283 284 284 279 273 273 276 276
128 215 164 108 133 74 46 48 54 59 64 75 77 62 52 49 46 41 34 28 43 60 49 7 353 6 357 330 314 306 228 199 197 190 185 184 186 189 189 184 178 173 165 157 159 164 165 165 164 158 157 174 197 230 293 302 301 293 271 259 265 268 272 278 282 287 290 292 295 296 294 295 295 291 285 281 279 280 285 286 283 282 279 276 275 275 274
146 153 125 123 136 124 88 81 96 85 71 74 75 59 49 45 34 26 23 10 8 37 52 8 342 340 332 318 309 300 168 174 187 191 191 188 185 185 184 178 173 171 169 166 166 170 177 191 198 189 190 220 258 282 284 279 270 255 248 259 272 280 284 280 269 269 274 279 285 289 292 295 292 282 273 271 274 281 286 285 281 279 277 276 276 277 275
95 89 97 101 99 88 70 67 83 85 68 62 56 40 34 35 24 17 15 1 352 359 6 340 327 318 306 295 289 286 217 184 197 205 206 201 194 192 194 192 185 178 176 178 184 189 189 191 198 214 241 262 267 263 260 257 251 246 258 281 300 302 294 273 265 267 271 279 286 290 295 298 294 283 272 269 276 282 282 281 280 277 275 276 276 275 275
85 81 81 77 72 70 69 71 72 69 57 51 42 26 17 19 12 3 356 348 345 345 334 322 319 313 293 269 253 257 273 245 214 216 215 208 203 201 198 194 192 191 193 196 197 198 198 207 237 259 263 256 241 233 237 243 247 256 273 291 297 288 276 267 267 265 266 272 278 283 288 289 286 283 281 281 285 284 278 276 278 280 281 281 278 276 276
72 67 68 72 67 63 66 69 62 49 38 31 20 4 357 358 355 347 339 333 333 332 324 317 319 313 287 251 229 236 265 225 183 192 199 198 193 189 188 189 192 196 199 199 200 208 228 251 261 255 238 221 213 212 221 234 243 254 270 282 279 270 263 263 264 262 263 265 267 268 269 271 274 280 287 289 288 284 283 282 280 281 284 285 283 282 279
57 48 56 73 65 54 49 43 33 28 27 22 9 356 350 346 339 332 327 323 320 319 318 322 331 330 292 230 209 204 220 209 187 186 193 197 200 205 205 202 201 206 213 218 226 237 248 253 247 223 205 206 212 213 216 227 239 251 261 268 269 260 249 247 251 256 260 262 264 265 267 271 277 281 284 287 285 281 283 283 278 276 280 284 283 280 274
73 64 61 63 53 40 31 23 18 19 24 20 8 356 347 341 336 335 335 332 328 325 323 325 335 345 336 247 229 218 208 206 205 206 208 208 208 210 211 212 220 233 239 237 239 241 237 229 216 201 197 204 212 214 220 232 243 251 257 257 249 238 236 239 245 253 258 259 262 268 272 276 281 283 283 286 287 281 276 273 268 267 269 271 274 274 269
72 63 55 49 37 26 21 19 18 16 11 6 1 356 353 349 345 343 340 338 339 338 335 332 334 341 347 319 269 249 231 219 217 218 220 216 209 206 211 219 229 235 235 231 225 216 205 199 199 200 202 205 210 217 231 242 247 253 258 253 238 232 237 242 246 256 265 268 269 274 279 282 283 284 284 286 287 282 275 266 258 257 259 262 268 270 262
63 55 48 41 32 24 19 18 18 14 4 358 357 355 352 348 345 340 335 334 335 333 330 330 330 332 338 339 316 282 260 244 236 232 229 226 222 223 229 233 227 219 214 208 201 196 195 194 195 199 204 208 214 224 235 242 249 260 266 262 255 249 248 248 251 259 268 273 278 283 286 285 283 281 282 284 285 282 275 263 251 249 249 249 253 256 250
59 51 44 39 33 21 11 6 5 0 353 351 348 343 339 337 335 332 327 324 323 322 320 321 322 323 325 322 317 312 300 281 265 250 238 234 232 227 223 216 203 194 192 193 195 199 200 195 192 198 206 211 217 226 233 242 259 274 278 271 267 266 262 259 260 264 269 277 285 287 285 285 284 279 275 276 274 264 258 260 253 245 239 236 240 248 254
50 38 29 23 16 5 355 349 345 340 336 333 327 324 325 325 321 317 314 315 317 318 318 319 320 323 324 321 315 310 307 305 292 256 227 219 215 209 207 207 203 196 194 204 216 219 210 198 193 200 208 212 216 223 232 248 269 281 276 262 262 264 264 266 269 273 277 282 285 282 277 279 277 266 256 255 253 251 260 272 261 246 240 238 242 254 268
41 30 16 5 357 349 341 336 331 326 322 318 313 311 311 310 308 307 309 311 313 312 310 312 313 313 313 316 316 310 304 305 301 273 250 241 232 221 217 217 215 215 217 217 210 202 197 195 195 200 208 217 225 229 230 232 233 226 226 239 248 253 259 266 271 275 277 278 276 273 270 267 259 246 238 234 235 246 261 269 254 240 234 231 236 252 265
43 29 5 349 341 334 328 325 323 320 317 313 309 307 307 308 310 310 309 309 308 305 302 302 303 304 302 301 304 305 299 292 289 287 279 268 253 232 215 208 212 223 224 215 205 195 191 197 203 209 214 217 218 218 220 222 223 223 229 239 248 256 263 265 263 264 265 264 261 260 257 252 246 243 240 230 217 220 230 234 232 231 222 217 234 258 273
32 8 349 335 325 317 311 309 310 311 311 310 309 309 309 309 308 308 306 303 302 302 301 297 296 298 296 290 290 293 287 277 277 280 271 251 230 208 196 199 211 218 214 212 216 220 216 213 218 225 221 205 201 212 222 231 237 242 245 249 254 257 254 240 236 247 256 259 259 252 234 221 219 213 193 174 171 178 185 198 234 254 255 251 259 273 288
354 342 334 326 317 310 305 303 303 302 303 306 309 309 308 307 307 309 308 305 302 300 298 297 296 293 288 284 286 284 276 267 266 261 245 227 212 199 195 206 216 217 214 218 225 225 219 221 229 231 219 214 221 228 231 238 248 251 248 249 251 244 225 216 229 249 256 254 250 244 227 219 209 177 158 157 166 180 189 198 223 250 261 270 278 286 299
339 331 325 319 316 313 308 306 306 306 305 306 307 308 309 310 309 308 309 311 311 306 301 299 298 292 285 285 286 281 270 261 255 242 228 223 222 216 212 213 213 210 209 213 214 210 207 214 226 230 230 236 244 244 241 244 248 241 226 230 240 232 224 239 250 263 254 235 235 280 260 239 229 203 182 184 199 217 227 229 232 245 260 275 288 297 304
334 329 324 321 318 315 312 311 313 313 311 309 308 309 309 308 305 303 305 311 315 314 308 303 302 298 290 282 276 269 260 251 248 240 228 220 214 205 200 201 202 195 191 201 212 219 223 232 249 266 268 262 259 257 252 246 234 211 192 200 207 182 184 211 223 230 238 232 234 1 256 237 244 252 248 240 236 234 235 236 234 237 252 279 298 294 286
334 331 329 326 321 318 318 319 317 314 313 313 314 313 310 306 305 306 307 306 304 304 305 306 305 302 291 270 251 245 245 243 243 236 213 199 196 193 190 190 191 188 187 200 220 235 245 259 274 281 278 273 277 284 256 211 197 182 166 177 192 176 183 204 227 246 244 239 235 234 241 257 270 277 284 282 267 236 215 225 236 237 241 259 278 275 262
333 331 330 329 326 325 325 323 317 313 314 317 316 312 308 307 308 308 306 304 302 303 305 303 298 296 290 264 232 212 205 211 220 215 196 187 185 184 184 186 189 190 194 209 231 245 257 268 271 268 262 263 287 49 141 170 175 163 148 179 213 203 202 217 245 265 248 237 242 255 267 273 275 275 278 280 271 248 235 242 251 263 267 253 242 245 256
334 331 328 327 325 326 325 321 314 315 320 320 317 314 313 313 313 309 307 308 308 305 297 285 275 281 308 322 155 148 147 153 165 176 181 184 185 187 188 193 198 201 208 225 241 249 257 259 250 232 204 200 207 194 159 171 172 161 157 192 237 268 257 250 270 291 264 238 245 267 282 282 277 277 276 265 244 230 233 235 237 256 278 258 228 228 243
328 329 330 328 324 322 321 316 312 317 324 322 321 325 327 326 323 321 316 311 302 292 288 285 277 276 291 7 128 134 136 143 152 160 176 198 206 202 198 201 207 214 224 234 235 236 239 237 221 197 186 196 210 234 251 209 192 180 172 193 262 283 272 260 278 297 283 253 251 268 282 280 273 272 274 267 247 226 221 225 230 240 256 251 229 227 228
330 332 333 329 323 319 317 312 308 313 322 324 325 332 333 330 329 332 328 315 294 271 275 352 340 317 282 226 217 205 187 177 175 183 208 224 226 220 218 222 223 222 223 228 229 229 228 222 207 198 203 212 216 226 267 267 229 201 190 295 296 276 252 236 255 290 287 260 248 258 269 270 266 261 260 262 256 238 226 225 229 231 224 219 231 242 238
353 345 338 331 327 328 328 323 317 321 330 333 335 335 334 333 336 341 341 335 323 308 301 324 340 352 3 254 247 229 204 202 217 217 214 220 228 234 237 236 227 213 202 203 219 224 224 219 212 214 225 233 235 245 275 286 246 213 225 266 272 260 249 241 244 266 284 273 260 263 269 270 265 255 241 230 226 230 235 238 239 241 239 236 238 246 248
15 8 2 355 348 345 343 340 335 332 332 333 335 336 337 340 343 344 346 349 345 337 332 331 336 342 333 249 250 248 227 228 241 230 221 224 230 235 229 218 211 208 203 195 202 212 218 221 222 224 230 241 250 263 274 265 236 222 243 268 268 267 266 260 251 250 262 278 281 280 277 269 260 255 252 248 245 248 257 260 254 249 246 240 235 236 239
16 15 15 13 8 4 1 359 357 352 346 344 345 347 352 354 352 350 353 359 353 344 344 349 337 326 307 277 265 256 245 240 235 226 224 228 230 223 211 205 206 208 205 203 209 217 222 224 225 229 237 248 259 265 261 246 233 247 328 316 294 284 283 278 264 254 251 262 278 281 276 270 265 261 259 258 258 261 264 259 247 235 229 224 223 227 234
12 14 14 14 14 12 9 7 6 3 358 357 357 355 353 354 353 350 349 350 349 342 333 325 317 313 308 298 281 267 265 263 250 233 232 233 227 216 213 220 228 221 209 214 222 226 225 224 227 234 241 247 251 253 252 244 234 254 296 302 293 279 274 274 267 257 247 242 252 281 288 274 263 259 253 241 237 258 274 257 234 222 222 223 222 226 235
357 5 11 14 14 12 10 11 11 7 3 2 1 357 350 348 351 351 346 337 329 324 321 316 313 315 319 313 289 273 273 273 265 257 253 248 240 233 231 233 232 219 213 220 228 227 221 222 230 235 236 237 240 251 270 266 237 240 280 300 293 271 266 270 271 270 263 250 249 281 314 288 264 269 271 249 236 255 286 270 245 234 235 232 227 232 241
345 352 357 2 4 9 15 16 15 14 14 12 7 2 358 353 351 352 349 341 334 332 335 336 330 321 317 316 307 293 283 274 267 265 256 245 242 241 226 215 217 225 231 233 233 230 226 230 235 234 234 239 249 264 281 278 242 234 266 296 292 283 284 283 281 286 288 273 261 272 312 302 274 281 282 253 235 250 284 273 250 240 237 234 234 243 250
328 338 344 343 340 347 8 18 20 23 22 15 7 6 5 0 353 353 356 355 350 344 342 341 336 327 316 309 309 306 294 279 271 265 252 243 244 238 215 209 221 236 247 246 241 236 233 234 237 240 248 258 265 271 277 276 261 251 256 270 280 283 283 281 280 286 292 284 273 270 272 280 289 291 279 255 243 249 268 273 261 250 243 240 243 248 251
305 308 325 334 330 323 333 0 19 25 21 12 4 0 358 355 352 355 0 357 352 348 345 340 336 333 325 313 306 298 284 273 268 262 251 245 243 236 223 221 230 239 245 247 244 238 234 234 240 249 257 263 267 270 272 275 273 261 251 254 269 278 279 283 291 293 288 281 277 268 256 251 281 307 294 269 257 254 260 270 269 260 250 244 241 240 244
311 295 300 320 332 327 319 322 352 17 21 16 5 356 351 347 346 352 359 357 353 352 349 339 333 333 334 326 315 300 284 277 276 272 262 255 246 233 227 229 233 238 240 240 237 236 239 242 245 251 257 260 263 268 271 271 268 260 254 258 272 280 278 281 292 293 283 278 280 270 251 245 254 272 276 261 254 255 254 250 244 242 246 248 245 242 242